DELTA 1 DEB

Satellite information

Favourite Embed

Satellite Type and Status

DEBRISIN ORBIT

Key statistics

Satellite DELTA 1 DEB at a glance.

Uptime

17394

Days in orbit

Revolutions

≈ 14.3

Per day

Orbit

SSO

Sun Synchronous Orbit

Inclination

98.8

Latest

Satellite identification and parameters

Extended collection of information and parameters for DELTA 1 DEB.

Object identification

Identified? True

Debris? True

Object name: DELTA 1 DEB

International designator: 1978-026JE

Object number (NORAD): 37643

Object ID (CCSDS): 37643

Country: UNITED STATES OF AMERICA (US)

Current information (Y/N): Y

RCS size: SMALL

Orbital parameters

Period: 100.711 minutes

Inclination: 98.755 deg

SMA: 7170.423 km

Apoapsis: 822.794 km

Periapsis: 761.783 km

RAAN: 318.9175 deg

Eccentricy: 0.00425432

Argument of periapsis: 184.592 deg

Mean anomaly: 175.4877 deg

Mean motion: 14.298338 rev/day

Mean motion (dot): 0.00001026 rev/day2

B* drag term: 0.00041261209 1/REarth

Two-line elements (TLE)

Creation date: Oct. 18, 2025, 2:17 a.m.

Reference frame: TEME

Reference center: EARTH

Epoch: Oct. 17, 2025, 9:36 p.m. UTC

TLE line 0: 0 DELTA 1 DEB

TLE line 1: 1 37643U 78026JE 25290.90019535 .00001026 00000-0 41261-3 0 9992

TLE line 2: 2 37643 98.7550 318.9175 0042543 184.5920 175.4877 14.29833800203754

Live tracking on map

Real-time ground track for satellite DELTA 1 DEB.

In-orbit conjunctions

A list of the most updated potential collisions computed for object DELTA 1 DEB.

Target Orbit TCA Probability of collision Miss distance Type
ERS 1 SSO 2024-12-21 21:30:30 0.0001527946 109.0 (m) PAYLOAD

Associated space launch

Earth observation satellite

DELTA 1 DEB was lifted into orbit during the mission ‘Delta 2910 | Landsat 3’, on board a Delta 2910 space rocket.

The launch took place on March 5, 1978, 5:54 p.m. from Space Launch Complex 2W.

For more information about the launch, click the button.

Launch to space Delta 2910 | Landsat 3
Delta 2910 | Landsat 3

Agency: N/A

Status: Launch Successful

Launch date: March 5, 1978, 5:54 p.m. UTC

Rocket: Delta 2910

Launch pad: Space Launch Complex 2W

Location: Vandenberg SFB, CA, USA

...

Latest news about this satellite

There are no fresh news available about this satellite. Check back as we update our databases every day.


Newsletter sign-up

Weekly statistics, charts and insights to help you stay on top of the space industry.